SL-8 DEB *

Satellite information

Favourite Embed

Satellite Type and Status

DEBRISIN ORBIT

Key statistics

Satellite SL-8 DEB * at a glance.

Uptime

21976

Days in orbit

Revolutions

≈ 12.4

Per day

Orbit

LEO

Low Earth Orbit

Inclination

55.4

Latest

Satellite identification and parameters

Extended collection of information and parameters for SL-8 DEB *.

Object identification

Identified? True

Debris? True

Object name: SL-8 DEB *

International designator: 1965-070G

Object number (NORAD): 3045

Object ID (CCSDS): 3045

Country: COMMONWEALTH OF INDEPENDENT STATES (CIS)

Current information (Y/N): Y

RCS size: SMALL

Orbital parameters

Period: 115.703 minutes

Inclination: 55.4279 deg

SMA: 7865.464 km

Apoapsis: 1713.409 km

Periapsis: 1261.249 km

RAAN: 144.1023 deg

Eccentricy: 0.0287434

Argument of periapsis: 185.1869 deg

Mean anomaly: 321.6024 deg

Mean motion: 12.44561162 rev/day

Mean motion (dot): -0.00000316 rev/day2

B* drag term: -0.0013449508 1/REarth

Two-line elements (TLE)

Creation date: Oct. 31, 2025, 10:10 a.m.

Reference frame: TEME

Reference center: EARTH

Epoch: Oct. 30, 2025, 11:01 p.m. UTC

TLE line 0: 0 SL-8 DEB *

TLE line 1: 1 03045U 65070G 25303.95904255 -.00000316 00000-0 -13450-2 0 9999

TLE line 2: 2 03045 55.4279 144.1023 0287434 185.1869 321.6024 12.44561162660391

Live tracking on map

Real-time ground track for satellite SL-8 DEB *.

In-orbit conjunctions

A list of the most updated potential collisions computed for object SL-8 DEB *.

Target Orbit TCA Probability of collision Miss distance Type
COSMOS 620 LEO 2024-12-09 05:48:53 0.0001284249 449.0 (m) PAYLOAD

Associated space launch

The Strela-1 satellites were prototype store-dump communications satellites for tactical communication.

SL-8 DEB * was lifted into orbit during the mission ‘Kosmos 65S3 | Strela-1 20 to 24’, on board a Kosmos 65S3 space rocket.

The launch took place on Sept. 3, 1965, 2 p.m. from 41/15.

For more information about the launch, click the button.

Launch to space Kosmos 65S3 | Strela-1 20 to 24
Kosmos 65S3 | Strela-1 20 to 24

Agency: N/A

Status: Launch Successful

Launch date: Sept. 3, 1965, 2 p.m. UTC

Rocket: Kosmos 65S3

Launch pad: 41/15

Location: Baikonur Cosmodrome, Republic of Kazakhstan

...

Latest news about this satellite

There are no fresh news available about this satellite. Check back as we update our databases every day.


Newsletter sign-up

Weekly statistics, charts and insights to help you stay on top of the space industry.